Tracking 28514 objects as of 23-Feb-2024
HD Live streaming from Space Station
objects crossing your sky now

SXC3-2111 (SIBSU RESHUCUBE)

Track SXC3-2111 (SIBSU RESHUCUBE) now!
10-day predictions
SXC3-2111 (SIBSU RESHUCUBE) is classified as:


NORAD ID: 53382
Int'l Code: 2022-096N
Perigee: 412.0 km
Apogee: 415.5 km
Inclination: 97.4 °
Period: 92.7 minutes
Semi major axis: 6784 km
RCS: Unknown
Launch date: August 9, 2022
Source: (TBD)
Launch site: TYURATAM MISSILE AND SPACE COMPLEX (TTMTR)

Uplink (MHz):
Downlink (MHz): 435.380
Beacon (MHz):
Mode: 2400bps GMSK USP
Call sign: RS8S
Status: Active

Your satellite tracking list
Your tracking list is empty




NASA's NSSDC Master Catalog

Two Line Element Set (TLE):
1 53382U 22096N   24053.90472992  .00051789  00000-0  81393-3 0  9993
2 53382  97.4009 328.7869 0002557 111.8174 248.3351 15.53474259 86316
Source of the keplerian elements: AFSPC